Location: El Carrer d�Abaix
(41.5797°N, 2.1791°E)
Time: 23:42:25
(UTC+00:00)

STARLINK-1378 - Pass Details

Date: 02 October 2020
Orbit: 548 x 551 km, 53.0° (Epoch: 27 October)

Event Time Altitude Azimuth Distance (km) Brightness Sun altitude
Exits shadow 03:13:41 30° 41° (NE) 1,002 5.4 -29.3°
Drops below altitude 10° 03:15:53 10° 49° (NE) 1,826 7.1 -28.9°
Sets 03:18:09 0° 52° (NE) 2,723 8.3 -28.5°
